Погода в Ачаире

Россия / Омская область     54°39′29″N   73°52′39″E
темп.,
°C
ветер,
м/с
пор.,
м/с
влажн.,
%
обл.,
%
осадки,
мм/ч
давл.,
гПа
погр.,
м
19 января, вт
вт1900:00−23зюз459710 0.0 101982
03:00−23зюз47960 0.0 1020101
06:00−24зюз47950 0.0 1021114
09:00−24з449430 0.0 102271
12:00−22з349515 0.0 1024115
15:00−21з22950 0.0 102429
18:00−24сз229615 0.0 102520
21:00−26с119621 0.0 102620
20 января, ср
ср2000:00−26всв229111 0.0 102719
03:00−26в239133 0.0 102721
06:00−25в359066 0.0 102683
09:00−23вюв598999 0.0 1026205
12:00−21вюв6108999 0.0 1024262
15:00−19вюв71289100 0.0 1021327
18:00−17вюв71393100 0.4 1019414
21:00−16юв61195100 2.0 1017508
21 января, чт
чт2100:00−16ююв489699 2.3 1016249
03:00−16юз499797 0.1 1016218
06:00−20зюз5119798 0.1 1017223
09:00−22юз4796100 0.0 1017123
12:00−20юз599390 0.0 1017259
15:00−18юз599392 0.0 1015313
18:00−20юз499658 0.0 1014148
21:00−23зюз47970 0.0 1014112
22 января, пт
пт2200:00−25зюз47970 0.0 1013122
03:00−28з45980 0.0 101381
06:00−28з479922 0.0 1014105
09:00−28з369875 0.0 101595
12:00−25зюз469687 0.0 1015229
15:00−24зюз489685 0.0 1015270
18:00−27юз479991 0.0 1015133
21:00−25зюз4897100 0.0 1015212
23 января, сб
сб2300:00−23юз3698100 0.1 1014212
03:00−22юз2399100 0.3 1014126
06:00−22сз1199100 0.7 101420
09:00−22ссз3598100 0.3 1016142
12:00−22ссз479599 0.4 1019387
15:00−27сз489488 0.0 1024277
18:00−32зсз469644 0.0 102888
21:00−34зсз44960 0.0 103265